Location: Unspecified
(44.9342°N, 0.0000°E)
Time: 04:06:10
(UTC+00:00)

BPA 1/SL-24 R/B - Visible Passes

Search period start: 04 April 2026 00:00
Search period end: 14 April 2026 00:00
Orbit: 713 x 1266 km, 98.3° (Epoch: 29 March)

Date Brightness Start Highest point End Pass type
(mag) Time Alt. Az. Time Alt. Az. Time Alt. Az.
4 Apr ? 19:54:57 10° NE 19:59:28 31° E 20:01:47 23° SE visible
4 Apr ? 21:38:36 10° N 21:43:10 36° WNW 21:46:46 17° SW visible
5 Apr ? 20:23:30 10° NNE 20:28:31 55° ESE 20:31:34 26° SSE visible
5 Apr ? 22:08:09 10° NNW 22:11:55 21° WNW 22:15:58 10° WSW visible
6 Apr ? 19:10:57 10° ENE 19:13:21 13° E 19:15:51 10° ESE visible
6 Apr ? 20:52:21 10° NNE 20:57:29 84° WNW 21:01:23 21° SSW visible
6 Apr ? 22:38:23 10° NNW 22:40:33 13° WNW 22:42:47 10° W visible
7 Apr ? 19:38:21 10° NE 19:42:34 24° E 19:46:14 13° SE visible
7 Apr ? 21:21:27 10° N 21:26:23 49° WNW 21:31:13 14° SW visible
8 Apr ? 20:06:41 10° NNE 20:11:39 42° E 20:16:04 16° SSE visible
8 Apr ? 21:50:48 10° N 21:55:13 29° WNW 22:00:04 10° SW visible
9 Apr ? 20:35:24 10° NNE 20:40:40 74° ESE 20:45:57 14° S visible
9 Apr ? 22:20:31 10° NNW 22:23:55 18° WNW 22:27:33 10° WSW visible
10 Apr ? 19:21:54 10° NE 19:25:39 19° E 19:29:42 10° SE visible
10 Apr ? 21:04:22 10° N 21:09:37 66° WNW 21:15:35 10° SSW visible
10 Apr ? 22:51:44 10° NW 22:52:29 10° NW 22:53:16 10° WNW visible
11 Apr ? 19:49:56 10° NNE 19:54:49 32° E 20:00:14 10° SSE visible
11 Apr ? 21:33:34 10° N 21:38:29 39° WNW 21:44:01 10° SW visible
12 Apr ? 20:18:31 10° NNE 20:23:52 56° E 20:29:57 10° S visible
12 Apr ? 22:03:02 10° NNW 22:07:16 24° WNW 22:11:54 10° WSW visible
13 Apr ? 19:05:44 10° ENE 19:08:44 14° E 19:11:55 10° ESE visible
13 Apr ? 20:47:22 10° NNE 20:52:51 87° WNW 20:59:08 10° SSW visible
13 Apr ? 22:33:01 10° NNW 22:35:55 15° WNW 22:38:59 10° W visible
